Location: Newark
(52.3500°N, 175.9667°E)
Time: 00:00:41
(UTC+00:00)

Vanguard 1 - Pass Details

Date: 26 April 2021
Orbit: 649 x 3834 km, 34.2° (Epoch: 04 May)

Event Time Altitude Azimuth Distance (km) Brightness Sun altitude
Rises 07:43:37 0° 274° (W) 7,188 16.0 -2.3°
Reaches altitude 10° 07:50:34 10° 259° (W) 6,572 15.2 -3.2°
Maximum altitude 08:02:58 18° 225° (SW) 6,191 14.3 -4.9°
Drops below altitude 10° 08:15:52 10° 191° (S) 6,768 14.1 -6.6°
Sets 08:23:27 0° 175° (S) 7,457 14.2 -7.5°
